Regional Weather Roundup
Issued by NWS

Home | Current Version | Previous Version | Graphics & Text | Print | Product List | Glossary On
Versions: 1 2 3 4 5 6 7 8 9 10 11 12 13 14 15 16 17 18 19 20 21 22 23 24 25 26 27 28 29 30 31 32 33 34 35 36 37 38 39 40 41 42 43 44 45 46 47 48 49 50
919
ASUS45 KSLC 242110
RWRUT

UTAH REGIONAL WEATHER ROUNDUP
NATIONAL WEATHER SERVICE SALT LAKE CITY UT
300 PM MDT SUN SEP 24 2017

UTZ001>011-023>025-242200-

NORTHERN UTAH

CITY           SKY/WX    TMP DP  RH WIND       PRES   REMARKS
BRIGHAM CITY   CLOUDY    46  38  72 NW7       30.02R
HILL AFB       CLOUDY    44  40  84 NW9       30.01R
LOGAN          CLOUDY    46  39  76 W5        30.01R
OGDEN          CLOUDY    47  40  76 N15       30.00R
SALT LAKE CITY RAIN      45  43  93 S7        30.03R FOG
TOOELE VALLEY  LGT RAIN  43  41  93 NW10      30.06R
WENDOVER       PTSUNNY   60  29  30 NW16G22   30.02S
HEBER CITY     MIX PCPN  34  34 100 CALM      30.00R
WEST JORDAN    CLOUDY    41  41 100 SE7       30.05R

$$

UTZ011>015-024>027-242200-

CENTRAL/NORTHEAST UTAH

CITY           SKY/WX    TMP DP  RH WIND       PRES   REMARKS
PROVO AIRPORT  LGT RAIN  41  39  93 E8        30.06R
MOAB/CANYONLAN MOSUNNY   63  26  24 W12G23    29.91S
DELTA          CLOUDY    43  37  81 SE13      30.07R
PRICE          NOT AVBL
RICHFIELD      CLOUDY    46  34  61 E6        30.09R
ROOSEVELT      MIX PCPN  43  37  81 W3        30.00R
VERNAL         CLOUDY    50  37  61 E6        29.95S

$$

UTZ013>016-019>022-027-242200-

SOUTHERN UTAH

CITY           SKY/WX    TMP DP  RH WIND       PRES   REMARKS
BRYCE CANYON   MOSUNNY   47  27  45 NW20      30.06R
CEDAR CITY     MOSUNNY   52  35  52 N8        30.04F
MILFORD        CLOUDY    51  35  54 E3        30.06R
ST GEORGE      CLOUDY    66  29  24 W8        29.98F
HANKSVILLE     PTSUNNY   61  27  27 NW13G18   29.96R
KANAB          SUNNY     63  25  23 S7G14     30.03F
BLANDING         N/A     59  17  19 SE7G17    30.06S

$$

REGIONAL REPORTS     COLORADO/ARIZONA

CITY           SKY/WX    TMP DP  RH WIND       PRES   REMARKS
CRAIG, CO      CLOUDY    62  23  22 SW13G26   29.90S
GRAND JUNCTION SUNNY     61  27  27 NW13      29.92S
RIFLE, CO      SUNNY     62  27  26 W16G28    29.91R
MONTROSE, CO   MOSUNNY   60  25  26 W18G25    29.94R
CORTEZ, CO     SUNNY     59  23  25 S12       30.00S
PAGE, AZ       SUNNY     64  25  22 VRB7      29.95F
GRAND CANYON   SUNNY     56  15  20 W7        30.03S
KINGMAN, AZ    SUNNY     69  25  19 N8        29.98F
FLAGSTAFF, AZ  SUNNY     59   4  11 VRB7      30.02S

$$

REGIONAL REPORTS    NEVADA/IDAHO/WYOMING

CITY           SKY/WX    TMP DP  RH WIND       PRES   REMARKS
LAS VEGAS, NV  SUNNY     72  26  18 NE9       29.96F
ELY, NY        SUNNY     50  25  37 VRB5      30.07S
ELKO, NV       MOSUNNY   52  25  35 NW12      30.08S
POCATELLO, ID  PTSUNNY   58  33  39 W13       30.01S
BURLEY, ID     SUNNY     54  33  45 W10G17    30.02S
FORT BRIDGER,  LGT RAIN  37  37 100 W7        29.98R WCI  32
EVANSTON, WY   SNOW      34  34 100 N8        29.97R VSB 1/2 WCI  27
ROCK SPRINGS,  CLOUDY    45  37  73 NE17G23   29.96F

$$




USA.gov is the U.S. government's official web portal to all federal, state and local government web resources and services.